Dunkirk, NY

12:58 PM EDT on May 24, 2017 (GMT -0400)
Chautauqua County-Dunkirk

Weather History for KDKK - December, 2012

Change the Weather History Date:

Wednesday, December 12, 2012

  Actual Average Record
Temperature  
Mean Temperature 34 °F -  
Max Temperature 39 °F 38 °F 64 °F (1949)
Min Temperature 28 °F 25 °F -6 °F (1988)
Degree Days  
Heating Degree Days 32    
Moisture  
Dew Point 23 °F    
Average Humidity 65    
Maximum Humidity 78    
Minimum Humidity 53    
Precipitation  
Precipitation 0.00 in - - ()
Sea Level Pressure  
Sea Level Pressure 30.35 in    
Wind  
Wind Speed 11 mph (SSW)    
Max Wind Speed 14 mph    
Max Gust Speed 23 mph    
Visibility 10 miles    
Events      
Averages and records for this station are not official NWS values.
T = Trace of Precipitation, MM = Missing Value Source: NWS Daily Summary

Daily Weather History Graph

Daily Weather History Graph

Search for Another Location

Airport or City:

Trip Planner

Search our weather history database for the weather conditions in past years. The results will help you decide how hot, cold, wet, or windy it might be!

Date:

Astronomy

Dec. 12, 2012 Rise Set
Actual Time 7:37 AM EST 4:44 PM EST
Civil Twilight 7:05 AM EST 5:16 PM EST
Nautical Twilight 6:30 AM EST 5:51 PM EST
Astronomical Twilight 5:56 AM EST 6:25 PM EST
Moon 6:39 AM EST (12/12) 4:19 PM EST (12/12)
Length of Visible Light 10h 10m
Length of Day
9h 06m
Waning Crescent, 1% of the Moon is Illuminated
Dec 12
Waning Crescent
Dec 13
New
Dec 20
First Quarter
Dec 28
Full
Jan 4
Last Quarter

Hourly Weather History & Observations

Time (EST) Temp. Windchill Dew Point Humidity Pressure Visibility Wind Dir Wind Speed Gust Speed Precip Events Conditions
12:53 AM 33.1 °F 23.4 °F 21.9 °F 64% 30.21 in 10.0 mi SW 13.8 mph 23.0 mph N/A   Overcast
1:53 AM 33.1 °F 24.9 °F 21.0 °F 61% 30.22 in 10.0 mi SSW 10.4 mph - N/A   Overcast
2:53 AM 34.0 °F 25.0 °F 19.9 °F 56% 30.24 in 10.0 mi SSW 12.7 mph - N/A   Overcast
3:53 AM 34.0 °F 25.5 °F 21.0 °F 59% 30.25 in 10.0 mi SSW 11.5 mph - N/A   Overcast
4:53 AM 33.1 °F 24.9 °F 21.0 °F 61% 30.26 in 10.0 mi SSW 10.4 mph - N/A   Overcast
5:53 AM 33.1 °F 24.9 °F 21.9 °F 64% 30.28 in 10.0 mi SSW 10.4 mph - N/A   Overcast
6:53 AM 33.1 °F 24.4 °F 23.0 °F 66% 30.30 in 10.0 mi SSW 11.5 mph - N/A   Overcast
7:53 AM 30.9 °F 21.2 °F 21.9 °F 69% 30.32 in 10.0 mi South 12.7 mph - N/A   Scattered Clouds
8:53 AM 32.0 °F 22.5 °F 23.0 °F 69% 30.33 in 10.0 mi South 12.7 mph - N/A   Scattered Clouds
9:53 AM 34.0 °F 25.0 °F 23.0 °F 64% 30.35 in 10.0 mi SSW 12.7 mph - N/A   Clear
10:53 AM 37.9 °F 30.0 °F 25.0 °F 60% 30.37 in 10.0 mi SSW 12.7 mph - N/A   Clear
11:53 AM 39.0 °F 31.8 °F 25.0 °F 57% 30.37 in 10.0 mi WSW 11.5 mph 20.7 mph N/A   Clear
12:53 PM 39.9 °F 32.9 °F 24.1 °F 53% 30.38 in 10.0 mi WSW 11.5 mph - N/A   Scattered Clouds
1:53 PM 37.9 °F 30.5 °F 25.0 °F 60% 30.38 in 10.0 mi WSW 11.5 mph - N/A   Mostly Cloudy
2:53 PM 39.0 °F 31.8 °F 26.1 °F 60% 30.38 in 10.0 mi WSW 11.5 mph 18.4 mph N/A   Clear
3:53 PM 37.9 °F 32.1 °F 26.1 °F 62% 30.39 in 10.0 mi WSW 8.1 mph - N/A   Partly Cloudy
4:53 PM 36.0 °F 32.1 °F 26.1 °F 67% 30.40 in 10.0 mi SW 4.6 mph - N/A   Clear
5:53 PM 33.1 °F 27.7 °F 25.0 °F 72% 30.40 in 10.0 mi SSW 5.8 mph - N/A   Clear
6:53 PM 32.0 °F 26.4 °F 25.0 °F 75% 30.40 in 10.0 mi South 5.8 mph - N/A   Clear
7:53 PM 32.0 °F 26.4 °F 23.0 °F 69% 30.41 in 10.0 mi SSW 5.8 mph - N/A   Clear
8:53 PM 30.9 °F 26.2 °F 23.0 °F 72% 30.43 in 10.0 mi SSW 4.6 mph - N/A   Clear
9:53 PM 30.9 °F 27.5 °F 23.0 °F 72% 30.42 in 10.0 mi SW 3.5 mph - N/A   Clear
10:53 PM 28.9 °F 22.8 °F 23.0 °F 78% 30.43 in 10.0 mi SSW 5.8 mph - N/A   Clear
11:53 PM 33.1 °F 25.5 °F 21.9 °F 64% 30.44 in 10.0 mi SSW 9.2 mph - N/A   Clear